Regional Weather Roundup
Issued by NWS

Home | Current Version | Previous Version | Text Only | Print | Product List | Glossary Off
Versions: 1 2 3 4 5 6 7 8 9 10 11 12 13 14 15 16 17 18 19 20 21 22 23 24 25 26 27 28 29 30 31 32 33 34 35 36 37 38 39 40 41 42 43 44 45 46 47 48 49 50

000
ASUS43 KBIS 171520
RWRND

NORTH DAKOTA REGIONAL WEATHER ROUNDUP
NATIONAL WEATHER SERVICE BISMARCK ND
1000 AM CDT WED SEP 17 2014

NOTE: "FAIR" INDICATES FEW OR NO CLOUDS BELOW 12,000 FEET WITH NO
SIGNIFICANT WEATHER AND/OR OBSTRUCTIONS TO VISIBILITY.


NDZ001>003-009>011-017-171600-
NORTHWEST NORTH DAKOTA

CITY           SKY/WX    TMP DP  RH WIND       PRES   REMARKS
WILLISTON      SUNNY     54  43  66 CALM      29.96S
MINOT          SUNNY     54  45  71 S5        29.98R
MINOT AFB      SUNNY     54  47  77 E2        29.98R
$$

NDZ018>021-031>035-040>046-171600-
SOUTHWEST NORTH DAKOTA

CITY           SKY/WX    TMP DP  RH WIND       PRES   REMARKS
BISMARCK       SUNNY     53  46  77 CALM      29.98R
DICKINSON      MOSUNNY   58  49  72 SE5       29.96R
GARRISON         N/A     58  47  66 VRB3      29.97R
HETTINGER ARPT SUNNY     59  50  72 CALM      29.98S
$$

NDZ004>008-012>016-024-026-027-054-171600-
NORTHEAST NORTH DAKOTA

CITY           SKY/WX    TMP DP  RH WIND       PRES   REMARKS
GRAND FORKS    MOSUNNY   54  49  83 N9        29.97R
GRND FRKS AFB  MOSUNNY   53  50  88 N15       29.98R
DEVILS LAKE    SUNNY     54  43  66 NE10      29.98R
$$

NDZ022-023-025-028>030-036>039-047>053-171600-
SOUTHEAST NORTH DAKOTA

CITY           SKY/WX    TMP DP  RH WIND       PRES   REMARKS
FARGO          SUNNY     60  49  66 N3        29.94R
JAMESTOWN      SUNNY     58  49  72 NE7       29.97R
$$




USA.gov is the U.S. government's official web portal to all federal, state and local government web resources and services.